Location: Unspecified
(0.0000°N, 0.0000°E)
Time: 15:51:08
(UTC+00:00)

STARLINK-11188 [DTC] - Visible Passes

Search period start: 15 June 2025 00:00
Search period end: 25 June 2025 00:00
Orbit: 359 x 360 km, 53.2° (Epoch: 15 June)

Date Brightness Start Highest point End Pass type
(mag) Time Alt. Az. Time Alt. Az. Time Alt. Az.
15 Jun 5.5 05:18:14 10° SSE 05:20:02 15° SE 05:21:49 10° E visible
17 Jun 5.0 04:41:11 15° SSE 04:42:34 20° SE 04:44:52 10° ENE visible
18 Jun 3.3 05:09:49 20° WSW 05:11:27 40° NW 05:14:16 10° NNE visible
19 Jun 5.5 04:06:38 19° ENE 04:06:38 19° ENE 04:07:50 10° ENE visible
20 Jun 4.6 04:35:13 22° NNW 04:35:13 22° NNW 04:36:44 10° N visible
